GW3984 Weather Reports


Display with metric or nautical units.
time (UTC)temp
F
wind
direction
speed
MPH
gust
MPH
rain 1hr
in
rain 24hr
in
rain mn
in
humidity
%
barometer
mb
20260504050704 66 127 1.0 7.0 0.00 0.00 0.00 69 1017.3
20260504050015 65 68 2.0 9.0 0.00 0.00 0.00 68 1018.0
20260504045638 66 171 0.0 4.0 0.00 0.00 0.00 69 1017.2
20260504044648 66 116 0.0 3.0 0.00 0.00 0.00 68 1017.4
20260504044529 66 171 0.0 7.0 0.00 0.00 0.00 67 1018.2
20260504043644 66 158 0.0 4.0 0.00 0.00 0.00 67 1017.5
20260504043026 66 170 0.0 6.0 0.00 0.00 0.00 67 1018.2
20260504042704 66 162 0.0 4.0 0.00 0.00 0.00 67 1017.5
20260504041510 66 148 0.0 6.0 0.00 0.00 0.00 65 1018.3
20260504040555 67 163 0.0 3.0 0.00 0.00 0.00 66 1017.7
20260504040026 67 137 0.0 2.0 0.00 0.00 0.00 64 1018.4
20260504035540 68 119 0.0 5.0 0.00 0.00 0.00 64 1017.6
20260504034521 67 155 1.0 7.0 0.00 0.00 0.00 62 1018.3
20260504034509 68 153 1.0 5.0 0.00 0.00 0.00 63 1017.6
20260504033020 68 117 1.0 4.0 0.00 0.00 0.00 61 1018.3
20260504032350 68 145 0.0 3.0 0.00 0.00 0.00 61 1017.5
20260504031518 67 149 1.0 6.0 0.00 0.00 0.00 60 1018.2
20260504031403 68 146 0.0 4.0 0.00 0.00 0.00 61 1017.3
20260504030359 66 141 0.0 4.0 0.00 0.00 0.00 63 1017.3
20260504030014 64 130 1.0 6.0 0.00 0.00 0.00 1018.1
20260504025338 61 112 0.0 0.0 0.00 0.00 0.00 73 1017.3
20260504024510 60 158 0.0 0.0 0.00 0.00 0.00 73 1018.0
20260504024316 61 157 0.0 0.0 0.00 0.00 0.00 73 1017.3
20260504023306 61 157 0.0 0.0 0.00 0.00 0.00 72 1017.2
20260504023008 61 158 0.0 0.0 0.00 0.00 0.00 71 1017.9
20260504021507 62 158 0.0 0.0 0.00 0.00 0.00 69 1018.0
20260504021158 63 157 0.0 0.0 0.00 0.00 0.00 70 1017.3
20260504020024 63 158 0.0 0.0 0.00 0.00 0.00 68 1018.0
20260504015031 64 157 0.0 0.0 0.00 0.00 0.00 66 1017.0
20260504014524 64 158 0.0 0.0 0.00 0.00 0.00 64 1017.8
20260504014055 65 157 0.0 0.0 0.00 0.00 0.00 62 1017.0
20260504013032 66 158 0.0 0.0 0.00 0.00 0.00 58 1017.6
20260504012003 69 157 0.0 0.0 0.00 0.00 0.00 55 1016.8
20260504011520 69 158 0.0 1.0 0.00 0.00 0.00 51 1017.5
20260504010015 71 158 0.0 2.0 0.00 0.00 0.00 47 1017.4
20260504005839 71 157 0.0 0.0 0.00 0.00 0.00 48 1016.6
20260504004808 72 102 0.0 1.0 0.00 0.00 0.00 48 1016.6
20260504004514 72 144 0.0 3.0 0.00 0.00 0.00 46 1017.4
20260504003758 73 141 0.0 0.0 0.00 0.00 0.00 45 1016.7
20260504003012 73 166 0.0 3.0 0.00 0.00 0.00 43 1017.6
20260504002816 73 169 0.0 2.0 0.00 0.00 0.00 44 1016.8
20260504001817 74 102 0.0 6.0 0.00 0.00 0.00 42 1016.9
20260504001515 74 122 2.0 8.0 0.00 0.00 0.00 41 1017.7
20260504000049 74 155 1.0 4.0 0.00 0.00 0.00 40 1017.8
20260503235634 75 137 0.0 6.0 0.00 0.00 0.00 41 1017.1
20260503234642 75 94 1.0 6.0 0.00 0.00 0.00 38 1017.2
20260503234526 75 147 2.0 8.0 0.00 0.00 0.00 37 1018.0
20260503233617 76 124 1.0 6.0 0.00 0.00 0.00 40 1017.2
20260503233023 75 138 1.0 8.0 0.00 0.00 0.00 38 1018.0
20260503232544 76 202 1.0 6.0 0.00 0.00 0.00 39 1017.3
20260503231533 76 190 1.0 7.0 0.00 0.00 0.00 38 1017.3
20260503231520 76 168 3.0 7.0 0.00 0.00 0.00 37 1018.0
20260503230521 76 112 1.0 7.0 0.00 0.00 0.00 38 1017.3
20260503230020 76 169 2.0 9.0 0.00 0.00 0.00 37 1018.3
20260503224516 76 133 2.0 8.0 0.00 0.00 0.00 36 1018.1
20260503224353 76 91 1.0 6.0 0.00 0.00 0.00 37 1017.3
20260503223409 76 160 1.0 6.0 0.00 0.00 0.00 35 1017.4
20260503223017 76 156 0.0 8.0 0.00 0.00 0.00 37 1018.2
20260503222340 77 129 1.0 5.0 0.00 0.00 0.00 37 1017.6
20260503221514 77 57 0.0 7.0 0.00 0.00 0.00 36 1018.5
20260503221347 77 217 0.0 5.0 0.00 0.00 0.00 37 1017.8
20260503220027 76 157 2.0 9.0 0.00 0.00 0.00 36 1018.7
20260503215222 76 120 1.0 6.0 0.00 0.00 0.00 36 1018.1
20260503214527 75 117 1.0 7.0 0.00 0.00 0.00 38 1019.1
20260503214148 77 79 0.0 5.0 0.00 0.00 0.00 39 1018.4
20260503213212 77 94 0.0 3.0 0.00 0.00 0.00 36 1018.6
20260503213024 77 208 1.0 4.0 0.00 0.00 0.00 36 1019.4
20260503212215 77 100 1.0 6.0 0.00 0.00 0.00 36 1018.7
20260503211523 77 114 3.0 7.0 0.00 0.00 0.00 35 1019.6
20260503211234 77 120 1.0 8.0 0.00 0.00 0.00 36 1018.8
20260503210023 76 318 2.0 9.0 0.00 0.00 0.00 39 1019.8
20260503205127 77 124 0.0 6.0 0.00 0.00 0.00 40 1019.3
20260503204522 76 198 2.0 8.0 0.00 0.00 0.00 37 1020.3
20260503204059 77 176 1.0 6.0 0.00 0.00 0.00 36 1019.5
20260503203117 77 162 1.0 4.0 0.00 0.00 0.00 40 1019.7
20260503203025 76 59 1.0 7.0 0.00 0.00 0.00 39 1020.4
20260503202123 78 77 1.0 7.0 0.00 0.00 0.00 39 1019.8
20260503201517 77 142 4.0 8.0 0.00 0.00 0.00 37 1020.7
20260503201115 77 168 2.0 7.0 0.00 0.00 0.00 37 1020.1
20260503200121 77 105 2.0 7.0 0.00 0.00 0.00 37 1020.2
20260503200026 77 165 4.0 9.0 0.00 0.00 0.00 37 1020.9
20260503195054 78 167 1.0 8.0 0.00 0.00 0.00 36 1020.4
20260503194526 77 207 3.0 10.0 0.00 0.00 0.00 35 1021.2
20260503194106 78 39 2.0 10.0 0.00 0.00 0.00 37 1020.5
20260503193028 77 107 3.0 12.0 0.00 0.00 0.00 38 1021.2
20260503191923 76 125 1.0 6.0 0.00 0.00 0.00 39 1020.7
20260503191506 76 114 2.0 6.0 0.00 0.00 0.00 40 1021.4
20260503190920 77 202 1.0 8.0 0.00 0.00 0.00 41 1020.8
20260503190005 75 121 2.0 10.0 0.00 0.00 0.00 41 1021.6
20260503185932 76 349 2.0 8.0 0.00 0.00 0.00 41 1020.8
20260503184504 75 119 2.0 9.0 0.00 0.00 0.00 38 1022.1
20260503183835 77 120 2.0 7.0 0.00 0.00 0.00 41 1021.6
20260503183025 75 125 3.0 9.0 0.00 0.00 0.00 40 1022.5
20260503182823 76 158 2.0 9.0 0.00 0.00 0.00 42 1021.6
20260503181844 76 79 2.0 9.0 0.00 0.00 0.00 42 1021.8
20260503181523 76 101 3.0 11.0 0.00 0.00 0.00 39 1022.6
20260503180810 76 172 2.0 9.0 0.00 0.00 0.00 43 1021.9
20260503180029 74 130 5.0 11.0 0.00 0.00 0.00 41 1022.9
20260503175833 75 159 2.0 9.0 0.00 0.00 0.00 43 1022.2
20260503174841 77 86 0.0 6.0 0.00 0.00 0.00 42 1022.4
20260503174516 76 184 2.0 7.0 0.00 0.00 0.00 46 1023.1
20260503173040 75 236 1.0 5.0 0.00 0.00 0.00 44 1023.5
20260503171608 76 212 0.0 5.0 0.00 0.00 0.00 44 1023.0
20260503171508 76 168 1.0 7.0 0.00 0.00 0.00 43 1023.8
20260503170605 74 131 1.0 7.0 0.00 0.00 0.00 49 1023.0
20260503110205 46 140 0.0 0.0 0.00 0.00 0.00 94 1021.8
20260503100149 47 140 0.0 0.0 0.00 0.00 0.00 94 1021.7
20260503081519 48 142 0.0 2.0 0.00 0.00 0.00 93 1022.2
20260503072623 49 140 0.0 0.0 0.00 0.00 0.00 93 1022.0
20260503071524 49 142 0.0 0.0 0.00 0.00 0.00 92 1022.6
20260503070439 50 140 0.0 0.0 0.00 0.00 0.00 92 1022.2